• In Belarus
  • List of Countries
  • For 7 days
  • Water Temperature
  • Satellite Maps
  • Weather Map
  • Weather Widgets
  • user-avatar
    Login

    Hourly Weather Vratsa

    Today, 18 October, Thursday

    Time Temperature Precipitation Wind Pressure Humidity
    00:00 +12°C° 0 mm 1 mps 711 mmHg 73%
    01:00 +11°C° 0 mm 0 mps 711 mmHg 76%
    02:00 +10°C° 0 mm 0 mps 711 mmHg 78%
    03:00 +10°C° 0 mm 0 mps 710 mmHg 80%
    04:00 +10°C° 0 mm 0 mps 710 mmHg 82%
    05:00 +9°C° 0 mm 0 mps 710 mmHg 83%
    06:00 +10°C° 0 mm 0 mps 710 mmHg 81%
    07:00 +11°C° 0 mm 0 mps 710 mmHg 78%
    08:00 +11°C° 0 mm 0 mps 710 mmHg 76%
    09:00 +14°C° 0 mm 1 mps 710 mmHg 69%
    10:00 +16°C° 0 mm 1 mps 711 mmHg 62%
    11:00 +18°C° 0 mm 2 mps 711 mmHg 56%
    12:00 +19°C° 0 mm 2 mps 710 mmHg 52%
    13:00 +20°C° 0 mm 2 mps 710 mmHg 49%
    14:00 +21°C° 0 mm 2 mps 710 mmHg 46%
    15:00 +20°C° 0 mm 2 mps 709 mmHg 48%
    16:00 +19°C° 0 mm 2 mps 709 mmHg 51%
    17:00 +18°C° 0 mm 2 mps 709 mmHg 54%
    18:00 +18°C° 0 mm 1 mps 709 mmHg 59%
    19:00 +15°C° 0 mm 1 mps 709 mmHg 65%
    20:00 +14°C° 0 mm 1 mps 709 mmHg 71%
    21:00 +13°C° 0 mm 1 mps 709 mmHg 73%
    22:00 +13°C° 0 mm 1 mps 709 mmHg 74%
    23:00 +13°C° 0 mm 1 mps 709 mmHg 76%

    Tomorrow, 19 October, Friday

    Time Temperature Precipitation Wind Pressure Humidity
    00:00 +12°C° 0 mm 1 mps 709 mmHg 77%
    01:00 +12°C° 0 mm 1 mps 709 mmHg 78%
    02:00 +11°C° 0 mm 0 mps 709 mmHg 79%
    03:00 +12°C° 0 mm 1 mps 709 mmHg 80%
    04:00 +11°C° 0 mm 1 mps 709 mmHg 81%
    05:00 +11°C° 0 mm 1 mps 709 mmHg 82%
    06:00 +12°C° 0 mm 1 mps 709 mmHg 79%
    07:00 +12°C° 0 mm 1 mps 709 mmHg 76%
    08:00 +13°C° 0 mm 1 mps 710 mmHg 73%
    09:00 +15°C° 0 mm 1 mps 710 mmHg 66%
    10:00 +18°C° 0 mm 1 mps 710 mmHg 58%
    11:00 +20°C° 0 mm 1 mps 710 mmHg 51%
    12:00 +19°C° 0 mm 2 mps 710 mmHg 49%
    13:00 +20°C° 0 mm 2 mps 710 mmHg 47%
    14:00 +20°C° 0 mm 2 mps 710 mmHg 45%
    15:00 +20°C° 0 mm 2 mps 710 mmHg 47%
    16:00 +19°C° 0 mm 2 mps 710 mmHg 50%
    17:00 +18°C° 0 mm 2 mps 710 mmHg 52%
    18:00 +18°C° 0 mm 1 mps 710 mmHg 57%
    19:00 +15°C° 0 mm 1 mps 710 mmHg 61%
    20:00 +14°C° 0 mm 1 mps 710 mmHg 66%
    21:00 +13°C° 0 mm 1 mps 710 mmHg 67%
    22:00 +13°C° 0 mm 1 mps 710 mmHg 69%
    23:00 +12°C° 0 mm 1 mps 710 mmHg 70%

    Day after tomorrow, 20 October, Saturday

    Time Temperature Precipitation Wind Pressure Humidity
    00:00 +12°C° 0 mm 1 mps 711 mmHg 72%
    01:00 +12°C° 0 mm 1 mps 711 mmHg 73%
    02:00 +11°C° 0 mm 1 mps 711 mmHg 75%
    03:00 +11°C° 0 mm 1 mps 711 mmHg 76%
    04:00 +11°C° 0 mm 1 mps 710 mmHg 78%
    05:00 +10°C° 0 mm 1 mps 710 mmHg 79%
    06:00 +11°C° 0 mm 1 mps 711 mmHg 77%
    07:00 +11°C° 0 mm 1 mps 711 mmHg 75%
    08:00 +12°C° 0 mm 2 mps 712 mmHg 73%
    09:00 +13°C° 0 mm 2 mps 712 mmHg 67%
    10:00 +14°C° 0 mm 3 mps 712 mmHg 60%
    11:00 +17°C° 0 mm 3 mps 713 mmHg 54%
    12:00 +17°C° 0.1 mm 3 mps 712 mmHg 53%
    13:00 +18°C° 0.1 mm 3 mps 712 mmHg 51%
    14:00 +18°C° 0.1 mm 3 mps 712 mmHg 50%
    15:00 +17°C° 0.2 mm 3 mps 712 mmHg 53%
    16:00 +17°C° 0.2 mm 3 mps 712 mmHg 57%
    17:00 +16°C° 0.2 mm 2 mps 712 mmHg 60%
    18:00 +15°C° 0.1 mm 2 mps 712 mmHg 65%
    19:00 +14°C° 0.1 mm 2 mps 712 mmHg 70%
    20:00 +13°C° 0.1 mm 1 mps 713 mmHg 75%
    21:00 +13°C° 0.1 mm 1 mps 713 mmHg 76%
    22:00 +13°C° 0.1 mm 1 mps 713 mmHg 78%
    23:00 +12°C° 0.1 mm 1 mps 713 mmHg 79%

    21 October, Sunday

    Time Temperature Precipitation Wind Pressure Humidity
    00:00 +12°C° 0 mm 1 mps 713 mmHg 81%
    01:00 +12°C° 0 mm 1 mps 713 mmHg 83%
    02:00 +11°C° 0 mm 1 mps 713 mmHg 85%
    03:00 +11°C° 0 mm 1 mps 713 mmHg 86%
    04:00 +11°C° 0 mm 1 mps 713 mmHg 87%
    05:00 +10°C° 0 mm 1 mps 713 mmHg 88%
    06:00 +11°C° 0 mm 1 mps 713 mmHg 86%
    07:00 +11°C° 0 mm 1 mps 713 mmHg 84%
    08:00 +11°C° 0 mm 1 mps 713 mmHg 82%
    09:00 +13°C° 0 mm 1 mps 713 mmHg 74%
    10:00 +15°C° 0 mm 1 mps 714 mmHg 66%
    11:00 +16°C° 0 mm 2 mps 714 mmHg 58%
    12:00 +17°C° 0.1 mm 2 mps 713 mmHg 56%
    13:00 +17°C° 0.1 mm 2 mps 713 mmHg 54%
    14:00 +17°C° 0.1 mm 2 mps 712 mmHg 53%
    15:00 +17°C° 0.1 mm 2 mps 712 mmHg 56%
    16:00 +16°C° 0.1 mm 2 mps 711 mmHg 59%
    17:00 +15°C° 0.1 mm 2 mps 711 mmHg 62%
    18:00 +13°C° 0 mm 3 mps 711 mmHg 64%
    19:00 +12°C° 0 mm 3 mps 711 mmHg 66%
    20:00 +11°C° 0 mm 3 mps 711 mmHg 68%
    21:00 +10°C° 0 mm 3 mps 711 mmHg 68%
    22:00 +9°C° 0 mm 3 mps 711 mmHg 68%
    23:00 +9°C° 0 mm 3 mps 711 mmHg 69%

    22 October, Monday

    Time Temperature Precipitation Wind Pressure Humidity
    00:00 +8°C° 0 mm 3 mps 711 mmHg 70%
    01:00 +7°C° 0 mm 2 mps 711 mmHg 70%
    02:00 +7°C° 0 mm 2 mps 710 mmHg 71%
    03:00 +6°C° 0 mm 2 mps 710 mmHg 73%
    04:00 +5°C° 0 mm 2 mps 710 mmHg 75%
    05:00 +5°C° 0 mm 2 mps 710 mmHg 77%
    06:00 +5°C° 0.3 mm 2 mps 710 mmHg 78%
    07:00 +5°C° 0.3 mm 2 mps 710 mmHg 79%
    08:00 +5°C° 0.3 mm 2 mps 710 mmHg 80%
    09:00 +5°C° 0.6 mm 2 mps 710 mmHg 80%
    10:00 +6°C° 0.6 mm 2 mps 710 mmHg 81%
    11:00 +6°C° 0.6 mm 2 mps 710 mmHg 82%
    12:00 +6°C° 0.6 mm 2 mps 710 mmHg 81%
    13:00 +6°C° 0.6 mm 2 mps 710 mmHg 81%
    14:00 +6°C° 0.6 mm 2 mps 710 mmHg 80%
    15:00 +6°C° 0.4 mm 2 mps 710 mmHg 80%
    16:00 +6°C° 0.4 mm 2 mps 710 mmHg 80%
    17:00 +6°C° 0.4 mm 2 mps 710 mmHg 80%
    18:00 +5°C° 0.1 mm 2 mps 710 mmHg 83%
    19:00 +5°C° 0.1 mm 2 mps 710 mmHg 86%
    20:00 +4°C° 0.1 mm 2 mps 711 mmHg 88%
    21:00 +4°C° 0 mm 2 mps 711 mmHg 89%
    22:00 +4°C° 0 mm 2 mps 711 mmHg 89%
    23:00 +4°C° 0 mm 2 mps 711 mmHg 89%

    23 October, Tuesday

    Time Temperature Precipitation Wind Pressure Humidity
    00:00 +4°C° 0 mm 2 mps 711 mmHg 90%
    01:00 +4°C° 0 mm 2 mps 711 mmHg 90%
    02:00 +4°C° 0 mm 2 mps 710 mmHg 90%
    03:00 +3°C° 0 mm 2 mps 710 mmHg 90%
    04:00 +3°C° 0 mm 2 mps 710 mmHg 89%
    05:00 +3°C° 0 mm 2 mps 710 mmHg 89%
    06:00 +5°C° 0 mm 1 mps 710 mmHg 86%
    07:00 +5°C° 0 mm 1 mps 709 mmHg 83%
    08:00 +5°C° 0 mm 1 mps 709 mmHg 79%
    09:00 +7°C° 0 mm 1 mps 709 mmHg 72%
    10:00 +9°C° 0 mm 1 mps 709 mmHg 64%
    11:00 +10°C° 0 mm 1 mps 708 mmHg 56%
    12:00 +11°C° 0 mm 1 mps 708 mmHg 53%
    13:00 +12°C° 0 mm 2 mps 707 mmHg 51%
    14:00 +13°C° 0 mm 2 mps 706 mmHg 48%
    15:00 +12°C° 0 mm 1 mps 706 mmHg 51%
    16:00 +11°C° 0 mm 1 mps 706 mmHg 53%
    17:00 +11°C° 0 mm 1 mps 705 mmHg 56%
    18:00 +10°C° 0 mm 1 mps 705 mmHg 60%
    19:00 +8°C° 0 mm 1 mps 705 mmHg 64%
    20:00 +7°C° 0 mm 1 mps 705 mmHg 68%
    21:00 +7°C° 0 mm 1 mps 705 mmHg 69%
    22:00 +7°C° 0 mm 1 mps 705 mmHg 70%
    23:00 +6°C° 0 mm 1 mps 704 mmHg 71%
    Show more